EW5186 Weather Reports


Display with metric or nautical units.
time (UTC)temp
F
wind
direction
speed
MPH
gust
MPH
rain 1hr
in
rain 24hr
in
rain mn
in
humidity
%
barometer
mb
20260505230038 65 160 0.0 10.0 0.00 0.00 0.00 67 1010.4
20260505224522 66 77 2.0 10.0 0.00 0.00 0.00 66 1010.6
20260505223010 68 150 2.0 8.0 0.00 0.00 0.00 64 1010.6
20260505221508 69 23 2.0 6.0 0.00 0.00 0.00 63 1010.4
20260505220007 69 149 1.0 8.0 0.00 0.00 0.00 63 1010.3
20260505214507 70 146 2.0 11.0 0.00 0.00 0.00 64 1010.3
20260505213005 71 129 1.0 8.0 0.00 0.00 0.00 62 1010.2
20260505211505 70 130 1.0 8.0 0.00 0.00 0.00 65 1010.2
20260505210004 71 248 2.0 7.0 0.00 0.00 0.00 62 1010.2
20260505204502 71 152 3.0 9.0 0.00 0.00 0.00 62 1010.1
20260505203116 72 293 1.0 12.0 0.00 0.00 0.00 60 1010.0
20260505201557 72 71 1.0 9.0 0.00 0.00 0.00 63 1010.1
20260505200044 73 103 2.0 10.0 0.00 0.00 0.00 60 1010.4
20260505194550 72 125 3.0 11.0 0.00 0.00 0.00 62 1010.3
20260505193040 72 126 3.0 11.0 0.00 0.00 0.00 60 1010.5
20260505191539 73 96 0.0 9.0 0.00 0.00 0.00 60 1010.6
20260505190038 73 222 2.0 13.0 0.00 0.00 0.00 61 1010.8
20260505184538 73 169 4.0 9.0 0.00 0.00 0.00 60 1010.9
20260505183037 73 27 0.0 14.0 0.00 0.00 0.00 63 1010.8
20260505181536 74 129 1.0 12.0 0.00 0.00 0.00 60 1010.8
20260505180034 75 136 3.0 9.0 0.00 0.00 0.00 58 1010.8
20260505174531 74 230 1.0 8.0 0.00 0.00 0.00 62 1010.9
20260505173040 73 254 3.0 13.0 0.00 0.00 0.00 60 1011.2
20260505171510 73 136 3.0 9.0 0.00 0.00 0.00 59 1011.1
20260505170013 73 93 3.0 9.0 0.00 0.00 0.00 64 1011.1
20260505164601 72 103 2.0 9.0 0.00 0.00 0.00 61 1011.3
20260505163059 72 104 2.0 8.0 0.00 0.00 0.00 61 1011.8
20260505161550 71 125 3.0 10.0 0.00 0.00 0.00 63 1012.1
20260505153105 71 271 3.0 12.0 0.00 0.00 0.00 64 1012.6
20260505151554 71 124 2.0 10.0 0.00 0.00 0.00 62 1012.8
20260505140107 66 291 1.0 7.0 0.00 0.00 0.00 71 1012.4
20260505124530 59 218 0.0 4.0 0.00 0.00 0.00 82 1012.6
20260505123028 58 326 0.0 3.0 0.00 0.00 0.00 83 1012.7
20260505121531 58 291 0.0 7.0 0.00 0.00 0.00 83 1012.9
20260505120027 58 271 1.0 5.0 0.00 0.00 0.00 83 1012.9
20260505114505 56 123 0.0 3.0 0.00 0.00 0.00 87 1012.9
20260505113004 54 173 0.0 3.0 0.00 0.00 0.00 86 1013.1
20260505111647 55 134 1.0 3.0 0.00 0.00 0.00 85 1012.7
20260505101530 50 159 0.0 1.0 0.00 0.00 0.00 92 1012.0
20260505100034 50 103 0.0 0.0 0.00 0.00 0.00 92 1011.9
20260505094526 50 160 0.0 0.0 0.00 0.00 0.00 92 1011.9
20260505093026 49 94 0.0 2.0 0.00 0.00 0.00 92 1011.9
20260505091524 50 146 0.0 1.0 0.00 0.00 0.00 91 1011.8
20260505090044 50 74 0.0 1.0 0.00 0.00 0.00 91 1011.7
20260505084504 50 170 0.0 3.0 0.00 0.00 0.00 91 1011.9
20260505083105 50 60 0.0 1.0 0.00 0.00 0.00 90 1012.0
20260505081559 50 150 0.0 0.0 0.00 0.00 0.00 90 1012.0
20260505080051 50 87 0.0 0.0 0.00 0.00 0.00 89 1012.0
20260505074606 51 61 0.0 1.0 0.00 0.00 0.00 89 1012.0
20260505073052 51 128 0.0 1.0 0.00 0.00 0.00 89 1012.0
20260505071547 51 82 0.0 3.0 0.00 0.00 0.00 88 1012.1
20260505070047 51 118 0.0 2.0 0.00 0.00 0.00 87 1012.1
20260505064545 51 114 0.0 3.0 0.00 0.00 0.00 86 1012.3
20260505063044 51 90 0.0 2.0 0.00 0.00 0.00 86 1012.2
20260505061531 50 162 0.0 1.0 0.00 0.00 0.00 87 1012.4
20260505060023 50 116 0.0 0.0 0.00 0.00 0.00 86 1012.4
20260505054519 50 103 0.0 2.0 0.00 0.00 0.00 86 1012.5
20260505053011 50 150 0.0 3.0 0.00 0.00 0.00 87 1012.6
20260505051509 49 145 0.0 0.0 0.00 0.00 0.00 86 1012.7
20260505041602 51 100 0.0 0.0 0.00 0.00 0.00 82 1012.9
20260505040100 51 142 0.0 1.0 0.00 0.00 0.00 82 1013.0
20260505034543 51 91 0.0 1.0 0.00 0.00 0.00 81 1013.0
20260505033048 52 138 0.0 2.0 0.00 0.00 0.00 80 1013.0
20260505031528 53 111 0.0 3.0 0.00 0.00 0.00 79 1013.0
20260505030027 53 115 0.0 2.0 0.00 0.00 0.00 78 1013.0
20260505024549 53 103 0.0 2.0 0.00 0.00 0.00 79 1013.1
20260505023036 53 85 0.0 2.0 0.00 0.00 0.00 79 1013.0
20260505021542 53 151 0.0 1.0 0.00 0.00 0.00 79 1013.1
20260505020025 53 121 0.0 1.0 0.00 0.00 0.00 79 1013.0
20260505014527 53 138 0.0 3.0 0.00 0.00 0.00 77 1012.9
20260505013024 54 133 0.0 2.0 0.00 0.00 0.00 77 1012.9
20260505011507 54 120 0.0 5.0 0.00 0.00 0.00 75 1012.8
20260505010006 55 66 0.0 6.0 0.00 0.00 0.00 74 1012.6
20260505004549 55 86 1.0 5.0 0.00 0.00 0.00 72 1012.3
20260505003047 55 72 0.0 5.0 0.00 0.00 0.00 72 1012.3
20260505001531 55 148 0.0 2.0 0.00 0.00 0.00 71 1012.0
20260505000029 56 143 0.0 5.0 0.00 0.00 0.00 69 1011.8
20260504234511 57 129 0.0 3.0 0.00 0.00 0.00 67 1011.6
20260504233009 59 198 1.0 9.0 0.00 0.00 0.00 64 1011.4
20260504231552 60 79 1.0 5.0 0.00 0.00 0.00 62 1011.3